Montrose, CO

3:39 AM MST on February 09, 2016 (GMT -0700)
Montrose Regional

Weather History for KMTJ - July, 2013

Change the Weather History Date:

Monday, July 15, 2013

  Actual Average Record
Temperature  
Mean Temperature 76 °F 74 °F  
Max Temperature 91 °F 90 °F 98 °F (2005)
Min Temperature 60 °F 58 °F 52 °F (1997)
Degree Days  
Heating Degree Days 0 0  
Month to date heating degree days 0 0  
Since 1 June heating degree days 9 39  
Since 1 July heating degree days 0 0  
Cooling Degree Days 11 9  
Month to date cooling degree days 189 127  
Year to date cooling degree days 453 279  
Since 1 June cooling degree days 428 262  
Growing Degree Days 26 (Base 50)    
Moisture  
Dew Point 52 °F    
Average Humidity 45    
Maximum Humidity 65    
Minimum Humidity 24    
Precipitation  
Precipitation 0.01 in 0.02 in 0.18 in (2001)
Month to date precipitation 0.75 0.37  
Year to date precipitation 3.40 5.44  
Sea Level Pressure  
Sea Level Pressure 29.91 in    
Wind  
Wind Speed 8 mph (ESE)    
Max Wind Speed 26 mph    
Max Gust Speed 37 mph    
Visibility 10 miles    
Events Rain , Thunderstorm    
T = Trace of Precipitation, MM = Missing Value Source: NWS Daily Summary

Daily Weather History Graph

Daily Weather History Graph

Search for Another Location

Airport or City:

Trip Planner

Search our weather history database for the weather conditions in past years. The results will help you decide how hot, cold, wet, or windy it might be!

Date:

Astronomy

Jul. 15, 2013 Rise Set
Actual Time 5:59 AM MDT 8:34 PM MDT
Civil Twilight 5:28 AM MDT 9:05 PM MDT
Nautical Twilight 4:50 AM MDT 9:44 PM MDT
Astronomical Twilight 4:07 AM MDT 10:26 PM MDT
Moon 1:16 PM MDT (7/15) No Moon Set
Length of Visible Light 15h 36m
Length of Day
14h 35m
Waxing Crescent, 46% of the Moon is Illuminated
Jul 15
Waxing Crescent
Jul 15
First Quarter
Jul 22
Full
Jul 29
Last Quarter
Aug 6
New

Hourly Weather History & Observations

Time (MDT) Temp. Heat Index Dew Point Humidity Pressure Visibility Wind Dir Wind Speed Gust Speed Precip Events Conditions
12:05 AM 75.2 °F - 50.0 °F 41% 30.16 in 10.0 mi SE 15.0 mph 27.6 mph N/A   Clear
12:53 AM 73.0 °F - 51.1 °F 46% 29.90 in 10.0 mi East 9.2 mph - N/A   Clear
1:53 AM 70.0 °F - 53.1 °F 55% 29.89 in 10.0 mi ESE 4.6 mph - N/A   Clear
2:53 AM 70.0 °F - 52.0 °F 53% 29.89 in 10.0 mi ESE 5.8 mph - N/A   Clear
3:53 AM 69.1 °F - 52.0 °F 54% 29.89 in 10.0 mi East 6.9 mph - N/A   Clear
4:53 AM 63.0 °F - 50.0 °F 63% 29.91 in 10.0 mi SE 9.2 mph - N/A   Clear
5:53 AM 62.1 °F - 50.0 °F 65% 29.91 in 10.0 mi SE 5.8 mph - N/A   Clear
6:53 AM 62.1 °F - 50.0 °F 65% 29.93 in 6.0 mi SE 4.6 mph - N/A   Haze
7:53 AM 70.0 °F - 52.0 °F 53% 29.92 in 10.0 mi Variable 3.5 mph - N/A   Clear
8:53 AM 73.9 °F - 51.1 °F 45% 29.91 in 10.0 mi SSE 3.5 mph - N/A   Clear
9:53 AM 78.1 °F - 51.1 °F 39% 29.90 in 10.0 mi Calm Calm - N/A   Clear
10:53 AM 82.0 °F - 50.0 °F 33% 29.88 in 10.0 mi Calm Calm - N/A   Clear
11:53 AM 84.0 °F - 48.0 °F 28% 29.86 in 10.0 mi Variable 3.5 mph - N/A   Clear
12:53 PM 87.1 °F - 48.0 °F 26% 29.82 in 10.0 mi NNE 4.6 mph - N/A   Clear
1:53 PM 88.0 °F - 52.0 °F 29% 29.79 in 10.0 mi NW 9.2 mph - N/A   Clear
2:53 PM 89.1 °F - 48.9 °F 25% 29.75 in 10.0 mi NW 8.1 mph - N/A   Clear
3:53 PM 90.0 °F - 48.0 °F 24% 29.73 in 10.0 mi WNW 12.7 mph - N/A   Clear
4:33 PM 89.6 °F - 48.2 °F 24% 30.02 in 10.0 mi WNW 11.5 mph - N/A Thunderstorm Clear
4:50 PM 89.6 °F - 48.2 °F 24% 30.01 in 10.0 mi West 6.9 mph - N/A   Partly Cloudy
4:53 PM 89.1 °F - 48.0 °F 24% 29.74 in 10.0 mi West 6.9 mph - N/A   Partly Cloudy
5:20 PM 82.4 °F 81.4 °F 53.6 °F 37% 30.02 in 10.0 mi ESE 15.0 mph 32.2 mph N/A Thunderstorm Mostly Cloudy
5:41 PM 78.8 °F - 57.2 °F 47% 30.04 in 10.0 mi ENE 24.2 mph 33.4 mph 0.00 in Rain Light Rain
5:48 PM 78.8 °F - 53.6 °F 42% 30.03 in 7.0 mi ENE 17.3 mph 36.8 mph 0.00 in Rain , Thunderstorm Light Thunderstorms and Rain
5:53 PM 79.0 °F - 52.0 °F 39% 29.80 in 8.0 mi East 18.4 mph 36.8 mph 0.00 in Rain , Thunderstorm Light Thunderstorms and Rain
6:05 PM 75.2 °F - 55.4 °F 50% 30.04 in 10.0 mi ESE 17.3 mph - 0.00 in Thunderstorm Thunderstorm
6:42 PM 75.2 °F - 55.4 °F 50% 30.09 in 10.0 mi East 11.5 mph - 0.00 in   Partly Cloudy
6:53 PM 75.0 °F - 55.0 °F 50% 29.87 in 10.0 mi ESE 12.7 mph - 0.00 in   Mostly Cloudy
7:53 PM 70.0 °F - 61.0 °F 73% 29.89 in 10.0 mi SE 15.0 mph - 0.01 in Rain Light Rain
8:53 PM 70.0 °F - 57.9 °F 65% 29.88 in 10.0 mi South 12.7 mph - 0.00 in Rain Light Rain
9:53 PM 69.1 °F - 55.9 °F 63% 29.88 in 10.0 mi ESE 19.6 mph - 0.00 in   Clear
10:53 PM 69.1 °F - 55.9 °F 63% 29.89 in 10.0 mi ESE 9.2 mph - N/A   Clear
11:53 PM 68.0 °F - 55.9 °F 65% 29.91 in 10.0 mi West 5.8 mph - N/A   Clear